STARLINK-32573, 61725

Orbit data source: Space-Track

STARLINK-32573, 61725 is a payload satellite owned by SpaceX/Seattle (US) in LEO that was launched on Wed, 30 Oct 2024 UTC via an FALCON 9 launch vehicle from the Air Force Eastern Test Range (AFETR). Payload-class satellites include a variety of spacecraft equipped with specific instruments for various scientific and technological missions. These include communications satellites like Starlink; space stations such as the ISS; scientific satellites like the Hubble; Earth observation satellites from companies like Planet Labs, Umbra, and HawkEye 360; GPS; miniature CubeSats for education and research; and military/defense satellites.

Loading next visibility...
Identifier
61725, 2024-196U
Orbit
LEO
Country
Flag of USUS
Related business
Manufacturer
SpaceX/Seattle
Mission
Operational Commercial Communications
Bus & Motor
STARLINK V2M, Unknown motor
Mass
730 kg wet, ~700 kg dry
Launch date (UTC)
2024-10-30 (1 year ago)
Launch vehicle
FALCON 9
Launch site
Air Force Eastern Test Range (AFETR)
Object type
Payload
Rocket body
Debris
Shape & HBR
Box + 2 Pan, 17.7 m
Radar Cross Section
33.884 m², Large (>1 m²)

Expand to show TLE details & history
Last TLE update: 1 day ago

TLE from 1 day ago
0 STARLINK-32573
1 61725U 24196U   25293.51792315 -.00001532  00000-0 -39636-4 0  9991
2 61725  53.1611  32.5663 0000824  94.7340 265.3755 15.30189936 55699
Epoch: 2025-10-20T12:25Z
TLE epoch observation values (Epoch: 2025-10-20T12:25:48.560Z)
Latitude
Longitude
176.89488°
Altitude
476.191 km
Speed
7.629 km/s
True Right ascension
02h 10m 15s
True Declination
0° 00' 00"
Sunlit
Object was in full shadow at epoch
Visualization orbit readout
Latitude
Unknown
Longitude
Unknown
Altitude
Unknown
Speed
Unknown
Apparent Right ascension
Unknown
Apparent Declination
Unknown
Sunlit
N/A
Visualization observer readout
Local Sidereal Time
11:28:44
Azimuth
Unknown
Elevation
Unknown
Doppler factor
Unknown
Orbital elements
Apogee altitude
476.066 km
Perigee altitude
474.937 km
Semi-major axis
6,853.638 km
Eccentricity
0.00008
Inclination
53.1611°
RAAN
32.5663°
Arg. of periapsis
94.734°
True anomaly
265.36609°
Mean anomaly
265.3755°
Eccentric anomaly
265.37079°
Mean motion
3.82526 °/min
Orbital period
94.11 mins
BSTAR
-0.000039636
Loading maneuver chart data...
Computing Atmospheric mass density...
Loading historical data...
Loading historical data...
Loading historical data...
Loading historical data...
Loading historical data...
Loading historical data...
Loading historical data...

Documentation

Showing up to 5 results
|